• în România
  • Lista ţărilor
  • Pe 7 zile
  • Temperatura apei
  • Hartă satelitară
  • Meteo pe hartă
  • Widget-uri
  • user-avatar
    Intrare

    Meteo pe oră la Luanda

    Astăzi, 20 Ianuarie, Vineri

    Timp Temperatura Precipitaţii Vânt Presiune Umiditate
    00:00 +27°C° 0 mm 3 m/s 753 mmHg 82%
    01:00 +27°C° 0 mm 3 m/s 753 mmHg 83%
    02:00 +27°C° 0 mm 3 m/s 753 mmHg 84%
    03:00 +27°C° 0 mm 3 m/s 753 mmHg 85%
    04:00 +26°C° 0 mm 3 m/s 753 mmHg 85%
    05:00 +27°C° 0 mm 3 m/s 753 mmHg 84%
    06:00 +27°C° 0 mm 3 m/s 753 mmHg 83%
    07:00 +27°C° 0 mm 4 m/s 753 mmHg 82%
    08:00 +29°C° 0 mm 3 m/s 753 mmHg 72%
    09:00 +32°C° 0 mm 2 m/s 753 mmHg 62%
    10:00 +35°C° 0 mm 2 m/s 753 mmHg 51%
    11:00 +37°C° 0 mm 2 m/s 753 mmHg 46%
    12:00 +38°C° 0 mm 3 m/s 752 mmHg 40%
    13:00 +41°C° 0 mm 4 m/s 752 mmHg 35%
    14:00 +40°C° 0 mm 5 m/s 751 mmHg 39%
    15:00 +39°C° 0 mm 6 m/s 751 mmHg 43%
    16:00 +38°C° 0 mm 6 m/s 750 mmHg 47%
    17:00 +34°C° 0 mm 6 m/s 751 mmHg 56%
    18:00 +32°C° 0 mm 6 m/s 751 mmHg 64%
    19:00 +29°C° 0 mm 6 m/s 751 mmHg 72%
    20:00 +29°C° 0 mm 5 m/s 752 mmHg 76%
    21:00 +28°C° 0 mm 4 m/s 752 mmHg 79%
    22:00 +28°C° 0 mm 4 m/s 753 mmHg 82%
    23:00 +27°C° 0 mm 3 m/s 753 mmHg 84%

    Mâine, 21 Ianuarie, Sâmbătă

    Timp Temperatura Precipitaţii Vânt Presiune Umiditate
    00:00 +27°C° 0 mm 2 m/s 753 mmHg 86%
    01:00 +27°C° 0 mm 2 m/s 753 mmHg 88%
    02:00 +26°C° 0 mm 2 m/s 752 mmHg 89%
    03:00 +26°C° 0 mm 2 m/s 752 mmHg 89%
    04:00 +26°C° 0 mm 2 m/s 752 mmHg 90%
    05:00 +27°C° 0 mm 2 m/s 753 mmHg 88%
    06:00 +27°C° 0 mm 2 m/s 753 mmHg 86%
    07:00 +27°C° 0 mm 2 m/s 753 mmHg 84%
    08:00 +30°C° 0 mm 2 m/s 753 mmHg 71%
    09:00 +32°C° 0 mm 1 m/s 753 mmHg 59%
    10:00 +35°C° 0 mm 1 m/s 754 mmHg 46%
    11:00 +37°C° 0 mm 2 m/s 753 mmHg 43%
    12:00 +38°C° 0 mm 3 m/s 753 mmHg 40%
    13:00 +38°C° 0 mm 4 m/s 752 mmHg 37%
    14:00 +37°C° 0 mm 5 m/s 751 mmHg 42%
    15:00 +36°C° 0 mm 6 m/s 751 mmHg 46%
    16:00 +35°C° 0 mm 7 m/s 750 mmHg 50%
    17:00 +33°C° 0 mm 6 m/s 751 mmHg 58%
    18:00 +30°C° 0 mm 6 m/s 751 mmHg 66%
    19:00 +28°C° 0 mm 6 m/s 751 mmHg 75%
    20:00 +28°C° 0 mm 5 m/s 752 mmHg 77%
    21:00 +28°C° 0 mm 5 m/s 753 mmHg 80%
    22:00 +27°C° 0 mm 4 m/s 754 mmHg 83%
    23:00 +27°C° 0 mm 4 m/s 754 mmHg 82%

    Poimâine, 22 Ianuarie, Duminică

    Timp Temperatura Precipitaţii Vânt Presiune Umiditate
    00:00 +27°C° 0 mm 4 m/s 754 mmHg 82%
    01:00 +27°C° 0 mm 3 m/s 754 mmHg 82%
    02:00 +27°C° 0 mm 3 m/s 753 mmHg 80%
    03:00 +27°C° 0 mm 3 m/s 753 mmHg 78%
    04:00 +27°C° 0 mm 3 m/s 753 mmHg 76%
    05:00 +28°C° 0 mm 3 m/s 753 mmHg 74%
    06:00 +28°C° 0 mm 2 m/s 753 mmHg 72%
    07:00 +28°C° 0 mm 2 m/s 754 mmHg 70%
    08:00 +30°C° 0 mm 2 m/s 754 mmHg 62%
    09:00 +32°C° 0 mm 2 m/s 754 mmHg 53%
    10:00 +34°C° 0 mm 1 m/s 754 mmHg 45%
    11:00 +36°C° 0 mm 2 m/s 753 mmHg 41%
    12:00 +37°C° 0 mm 3 m/s 753 mmHg 38%
    13:00 +38°C° 0 mm 4 m/s 752 mmHg 34%
    14:00 +37°C° 0 mm 4 m/s 751 mmHg 37%
    15:00 +36°C° 0 mm 5 m/s 751 mmHg 41%
    16:00 +35°C° 0 mm 5 m/s 750 mmHg 44%
    17:00 +33°C° 0 mm 5 m/s 751 mmHg 53%
    18:00 +30°C° 0 mm 4 m/s 751 mmHg 61%
    19:00 +28°C° 0 mm 4 m/s 752 mmHg 70%
    20:00 +28°C° 0 mm 4 m/s 753 mmHg 72%
    21:00 +27°C° 0 mm 4 m/s 753 mmHg 75%
    22:00 +27°C° 0 mm 4 m/s 754 mmHg 78%
    23:00 +27°C° 0 mm 3 m/s 754 mmHg 79%

    23 Ianuarie, Luni

    Timp Temperatura Precipitaţii Vânt Presiune Umiditate
    00:00 +27°C° 0 mm 3 m/s 754 mmHg 80%
    01:00 +27°C° 0 mm 3 m/s 753 mmHg 81%
    02:00 +27°C° 0 mm 3 m/s 753 mmHg 80%
    03:00 +27°C° 0 mm 3 m/s 753 mmHg 79%
    04:00 +27°C° 0 mm 3 m/s 753 mmHg 78%
    05:00 +27°C° 0 mm 2 m/s 753 mmHg 78%
    06:00 +27°C° 0 mm 2 m/s 754 mmHg 78%
    07:00 +27°C° 0 mm 1 m/s 754 mmHg 78%
    08:00 +28°C° 0 mm 1 m/s 755 mmHg 72%
    09:00 +29°C° 0 mm 1 m/s 755 mmHg 67%
    10:00 +30°C° 0 mm 1 m/s 755 mmHg 62%
    11:00 +31°C° 0 mm 1 m/s 755 mmHg 59%
    12:00 +32°C° 0 mm 2 m/s 754 mmHg 55%
    13:00 +34°C° 0 mm 2 m/s 753 mmHg 51%
    14:00 +33°C° 0 mm 3 m/s 753 mmHg 52%
    15:00 +33°C° 0 mm 3 m/s 752 mmHg 54%
    16:00 +33°C° 0 mm 3 m/s 751 mmHg 55%
    17:00 +30°C° 0 mm 3 m/s 752 mmHg 60%
    18:00 +29°C° 0 mm 3 m/s 753 mmHg 65%
    19:00 +28°C° 0 mm 3 m/s 753 mmHg 70%
    20:00 +28°C° 0 mm 3 m/s 754 mmHg 74%
    21:00 +27°C° 0 mm 2 m/s 754 mmHg 78%
    22:00 +26°C° 0 mm 2 m/s 755 mmHg 82%
    23:00 +26°C° 0 mm 2 m/s 754 mmHg 83%

    24 Ianuarie, Marţi

    Timp Temperatura Precipitaţii Vânt Presiune Umiditate
    00:00 +26°C° 0 mm 2 m/s 754 mmHg 83%
    01:00 +26°C° 0 mm 2 m/s 754 mmHg 84%
    02:00 +26°C° 0 mm 3 m/s 754 mmHg 83%
    03:00 +26°C° 0 mm 3 m/s 754 mmHg 83%
    04:00 +26°C° 0 mm 3 m/s 753 mmHg 82%
    05:00 +26°C° 0 mm 3 m/s 754 mmHg 82%
    06:00 +26°C° 0 mm 3 m/s 754 mmHg 81%
    07:00 +26°C° 0 mm 2 m/s 755 mmHg 81%
    08:00 +29°C° 0 mm 2 m/s 755 mmHg 70%
    09:00 +32°C° 0 mm 1 m/s 755 mmHg 59%
    10:00 +34°C° 0 mm 1 m/s 755 mmHg 48%
    11:00 +35°C° 0 mm 1 m/s 755 mmHg 45%
    12:00 +36°C° 0 mm 2 m/s 754 mmHg 42%
    13:00 +37°C° 0 mm 2 m/s 754 mmHg 39%
    14:00 +36°C° 0 mm 3 m/s 753 mmHg 43%
    15:00 +35°C° 0 mm 4 m/s 753 mmHg 46%
    16:00 +35°C° 0 mm 4 m/s 752 mmHg 49%
    17:00 +33°C° 0 mm 4 m/s 753 mmHg 56%
    18:00 +32°C° 0 mm 4 m/s 753 mmHg 63%
    19:00 +29°C° 0 mm 4 m/s 753 mmHg 70%
    20:00 +28°C° 0 mm 4 m/s 754 mmHg 73%
    21:00 +28°C° 0 mm 4 m/s 754 mmHg 76%
    22:00 +27°C° 0 mm 3 m/s 754 mmHg 79%
    23:00 +27°C° 0 mm 3 m/s 754 mmHg 81%

    25 Ianuarie, Miercuri

    Timp Temperatura Precipitaţii Vânt Presiune Umiditate
    00:00 +26°C° 0 mm 3 m/s 753 mmHg 82%
    01:00 +26°C° 0 mm 3 m/s 753 mmHg 83%
    02:00 +26°C° 0 mm 2 m/s 753 mmHg 86%
    03:00 +25°C° 0 mm 2 m/s 753 mmHg 88%
    04:00 +25°C° 0 mm 2 m/s 753 mmHg 90%
    05:00 +25°C° 0 mm 2 m/s 754 mmHg 87%
    06:00 +26°C° 0 mm 1 m/s 754 mmHg 84%
    07:00 +27°C° 0 mm 1 m/s 755 mmHg 81%
    08:00 +28°C° 0 mm 1 m/s 755 mmHg 73%
    09:00 +30°C° 0 mm 1 m/s 755 mmHg 64%
    10:00 +32°C° 0 mm 1 m/s 755 mmHg 56%
    11:00 +34°C° 0 mm 2 m/s 755 mmHg 52%
    12:00 +35°C° 0 mm 3 m/s 754 mmHg 47%
    13:00 +37°C° 0 mm 3 m/s 753 mmHg 43%
    14:00 +36°C° 0 mm 4 m/s 753 mmHg 45%
    15:00 +35°C° 0 mm 4 m/s 752 mmHg 48%
    16:00 +35°C° 0 mm 5 m/s 752 mmHg 50%
    17:00 +33°C° 0 mm 5 m/s 752 mmHg 58%
    18:00 +30°C° 0 mm 5 m/s 753 mmHg 65%
    19:00 +28°C° 0 mm 4 m/s 753 mmHg 73%
    20:00 +28°C° 0 mm 4 m/s 754 mmHg 76%
    21:00 +27°C° 0 mm 4 m/s 754 mmHg 79%
    22:00 +27°C° 0 mm 3 m/s 755 mmHg 82%
    23:00 +26°C° 0 mm 3 m/s 755 mmHg 84%
    Arată mai mult